Weather in Orto-Surt

Russia / Sakha (Yakutia) Republic     62°34′03″N   125°07′08″E
temp.,
°C
wind,
m/s
gust,
m/s
humid.,
%
clouds,
%
prec.,
mm/h
press.,
hPa
HPBL,
m
20 june, sun
sun2000:00+17se117287 0.0 100711
03:00+15nne107874 0.0 100811
06:00+20wsw016470 0.0 100881
09:00+27nne114387 0.0 1008755
12:00+31wnw123310 0.0 10072283
15:00+31nnw222841 0.0 10062967
18:00+30n323375 0.0 10051664
21:00+24nne264876 0.0 1006136
21 june, mon
mon2100:00+20ene226031 0.0 100739
03:00+18ene11629 0.0 100711
06:00+22ne125734 0.0 100788
09:00+28nne23365 0.0 1006877
12:00+31n22275 0.0 10052651
15:00+32n33246 0.0 10033148
18:00+31n33261 0.0 10032782
21:00+25nne22492 0.0 100313
22 june, tue
tue2200:00+20se11533 0.0 100311
03:00+18nnw11615 0.0 100411
06:00+23nne11535 0.0 100353
09:00+29nnw22345 0.0 1003720
12:00+32n21255 0.0 10032896
15:00+32nnw332371 0.0 10023205
18:00+32n43256 0.0 10013107
21:00+25nne23455 0.0 100355
23 june, wed
wed2300:00+20wsw115635 0.0 100411
03:00+19nw22585 0.0 100425
06:00+22nnw276041 0.0 1005203
09:00+28n463947 0.0 1006815
12:00+31n462994 0.0 10052797
15:00+33n452473 0.0 10053647
18:00+32nne45265 0.0 10042767
21:00+26ene244526 0.0 100694
24 june, thu
thu2400:00+20sw116865 0.0 100711
03:00+18sse117178 0.0 100711
06:00+22nw116214 0.0 100779
09:00+28nne22385 0.0 1006716
12:00+32ne1128100 0.0 10051931
15:00+33nne222567 0.0 10033256
18:00+17se3888100 12.8 1005167
21:00+18wsw4982100 13.1 1003185